Regional Weather Roundup
Issued by NWS State College, PA

Home | Current Version | Previous Version | Text Only | Print | Product List | Glossary On
Versions: 1 2 3 4 5 6 7 8 9 10 11 12 13 14 15 16 17 18 19 20 21 22 23 24 25 26 27 28 29 30 31 32 33 34 35 36 37 38 39 40 41 42 43 44 45 46 47 48 49 50
000
ASUS41 KCTP 181310
RWRCTP

REGIONAL WEATHER ROUNDUP
NATIONAL WEATHER SERVICE STATE COLLEGE PA
900 AM EDT WED OCT 18 2017

Note: "fair" indicates few or no clouds below 12,000 feet with no
significant weather and/or obstructions to visibility.

* = STATION THAT DOES NOT REPORT PRECIPITATION /E.G. RAIN...SNOW...ETC/
    THUNDER OR FOG.

PAZ002>004-007>009-013>016-020>023-029>032-181400-
WESTERN PENNSYLVANIA

CITY           SKY/WX    TMP DP  RH WIND       PRES   REMARKS
ERIE           SUNNY     52  41  66 S9        30.30R
MEADVILLE      SUNNY     47  40  76 S8        30.33R
FRANKLIN*      SUNNY     45  40  82 S7        30.35R
NEW CASTLE     FAIR      43  42  97 CALM      30.36
BEAVER COUNTY  SUNNY     46  41  81 CALM      30.35R
BUTLER*        SUNNY    N/A N/A N/A CALM      30.36R
PITTSBURGH INT SUNNY     46  41  82 CALM      30.36R
PITTSBURGH     SUNNY     45  39  79 S3        30.36R
INDIANA*       SUNNY     45  41  87 CALM      30.40R
LATROBE        SUNNY     39  39 100 CALM      30.38R
WASHINGTON CO* SUNNY     42  40  92 CALM      30.39R
$$

PAZ004>006-010>012-017>019-024>028-033>037-041-042-045-046-049>053-181400-
CENTRAL PENNSYLVANIA

CITY           SKY/WX    TMP DP  RH WIND       PRES   REMARKS
BRADFORD       SUNNY     47  39  74 SW5       30.34R
DUBOIS         SUNNY     45  39  79 CALM      30.35R
CLEARFIELD     SUNNY     40  39  97 SW3       30.37R
JOHNSTOWN      SUNNY     49  38  65 S3        30.37R
ALTOONA        SUNNY     50  42  74 W3        30.38R
STATE COLLEGE  SUNNY     48  41  76 CALM      30.37R
WILLIAMSPORT   FOG       42  42 100 CALM      30.37R VSB 1
SELINSGROVE    MOSUNNY   43  43 100 CALM      30.39R
FT INDIANTOWN  SUNNY     43  43  99 CALM      30.37R
CAPITAL CITY   SUNNY     48  40  73 CALM      30.38R
HARRISBURG     SUNNY     48  45  89 CALM      30.37R
YORK           SUNNY     44  41  89 CALM      30.38R
$$

PAZ038>040-043-044-047-048-054-055-060>062-067>071-181400-
EASTERN PENNSYLVANIA

CITY           SKY/WX    TMP DP  RH WIND       PRES   REMARKS
SCRANTON       SUNNY     48  40  73 W3        30.35R
MOUNT POCONO   SUNNY     47  39  74 W6        30.34R
ALLENTOWN      SUNNY     48  40  73 SW7       30.35R
QUAKERTOWN*    SUNNY     46  39  76 CALM      30.36R
READING        SUNNY     48  44  86 CALM      30.36R
LANCASTER      SUNNY     47  43  86 CALM      30.37R
COATESVILLE    SUNNY     52  41  66 W7        30.37R
POTTSTOWN      SUNNY     46  42  86 CALM      30.37R
BLUE BELL      SUNNY     50  41  71 CALM      30.37S
DOYLESTOWN     SUNNY     48  40  73 CALM      30.34R
WILLOW GROVE   NOT AVBL
NORTH PHILA    SUNNY     53  42  66 W6        30.37R
PHILADELPHIA   SUNNY     53  43  68 W7        30.37R
$$




USA.gov is the U.S. government's official web portal to all federal, state and local government web resources and services.